Theta_e
317 317 318 321 321 324 325 325 322 320 319 312 312 315 316 321 321 319 319 318 320 320 319 317 318 320 322 321 322 321 321 324 326 323 327 337 338 339 340 339 340 341 342 342 342 340 339 338 337 338 337 338 341 341 340 339 339 340 339 339 338 338 337 337 337 336 336 336 334 330 326 326 327 330 328 323 326 323 321 330 331 330 330 329 330 329 331 332 332 333 333 332 331 331 328 326 326
318 319 321 322 323 326 326 325 320 315 314 309 312 317 317 320 319 319 319 320 322 321 319 318 317 320 322 320 320 320 325 327 328 329 331 334 336 339 338 339 340 341 342 342 342 342 341 338 336 338 337 338 341 341 340 339 340 340 339 339 338 337 337 336 336 336 335 335 333 330 326 326 327 327 324 321 324 324 326 331 331 330 329 329 330 329 331 332 333 333 333 332 329 326 324 323 323
318 322 324 323 325 325 324 323 317 311 310 309 311 317 319 319 319 320 321 321 322 320 319 319 319 320 320 320 321 320 326 328 328 330 331 334 337 337 337 339 340 342 342 342 342 343 343 338 336 338 336 337 340 340 340 340 340 339 339 338 338 337 336 336 336 335 335 334 333 330 327 325 325 324 320 320 323 323 326 330 330 329 329 329 330 330 330 331 332 332 332 331 327 324 322 323 324
319 322 324 325 326 324 324 322 317 311 309 308 311 318 319 319 319 320 321 320 319 319 319 319 320 321 320 322 322 319 326 329 331 331 330 335 338 337 337 339 340 342 342 343 343 343 343 338 336 338 336 336 338 340 339 340 340 339 338 335 335 336 335 336 336 335 334 333 333 330 327 325 324 322 319 318 321 324 327 330 330 329 329 329 331 331 331 331 331 331 331 329 328 327 325 325 326
320 322 322 326 329 324 323 321 318 314 310 311 313 317 319 319 320 320 321 319 318 318 319 320 322 322 320 322 321 320 326 328 332 333 333 336 338 337 337 339 341 342 342 343 342 343 342 337 336 337 336 336 338 340 339 340 339 339 338 335 334 335 334 335 335 335 334 333 333 330 327 326 324 323 319 314 317 324 327 329 330 329 328 329 330 331 332 332 332 331 330 329 328 327 325 326 325
322 324 322 324 326 323 322 317 315 314 315 317 316 317 318 318 319 320 320 319 318 318 318 319 321 320 320 323 323 325 328 328 330 333 336 337 336 336 337 339 340 341 342 343 342 343 342 336 336 336 336 336 338 339 339 340 339 339 337 333 332 335 335 334 335 335 334 333 332 331 329 327 325 323 319 312 312 320 326 329 329 329 328 328 329 329 330 330 331 331 330 328 327 325 324 325 324
324 324 323 323 322 323 321 315 313 315 317 319 318 317 317 317 319 320 319 319 318 317 317 318 319 319 321 323 323 327 329 330 332 334 336 336 335 336 337 338 340 341 342 343 342 343 341 336 335 336 336 336 337 339 339 339 339 338 337 332 329 333 335 334 335 335 334 332 332 331 331 328 325 324 320 314 309 314 323 327 329 329 328 328 328 328 328 328 328 329 328 326 325 324 324 324 324
323 323 324 324 322 322 320 315 316 317 318 317 318 318 318 318 318 318 318 319 318 317 317 317 318 318 320 320 323 327 328 330 334 333 334 334 335 336 336 338 340 341 342 343 343 342 340 337 336 336 336 336 336 337 338 339 338 338 337 331 326 331 334 333 333 335 334 332 332 332 331 328 326 325 321 316 310 311 320 325 327 328 328 328 328 327 327 326 326 326 326 325 324 324 324 324 323
322 323 323 324 322 319 316 315 317 318 319 317 318 318 318 318 318 318 318 318 318 318 318 318 318 318 318 318 324 327 326 329 331 331 333 335 336 337 337 339 340 341 342 343 343 342 340 337 337 336 336 336 336 337 338 338 338 338 337 329 323 327 332 333 333 334 333 333 333 332 331 329 327 325 322 317 311 310 315 322 325 326 328 327 327 327 326 325 325 324 324 324 324 323 323 323 323
321 322 322 323 320 315 313 314 317 319 319 318 317 317 318 317 317 318 318 318 317 317 318 319 317 317 317 318 323 325 327 329 329 332 333 335 336 337 338 339 341 341 341 342 343 343 340 338 337 337 337 336 336 337 338 337 338 338 337 331 326 324 327 330 332 332 333 333 333 333 333 331 328 326 324 319 313 308 309 315 321 324 326 326 326 325 325 324 322 321 321 323 323 322 322 323 322
321 320 322 321 315 312 311 313 316 319 319 318 317 317 318 317 317 318 318 317 316 317 318 318 317 318 316 318 322 324 328 328 330 333 333 335 335 337 338 340 342 341 342 342 342 343 341 338 338 338 337 337 336 337 337 337 337 337 337 336 333 328 325 325 327 329 331 332 333 333 334 333 330 327 324 321 316 312 308 308 312 318 322 322 323 321 319 316 314 312 313 317 320 320 320 321 321
322 320 321 318 314 314 314 315 316 319 319 317 317 317 317 317 317 317 317 316 316 316 317 317 317 318 316 318 321 323 326 328 331 333 333 334 334 336 338 340 342 342 342 342 342 343 341 340 339 338 338 338 337 337 337 337 337 337 337 337 336 334 330 326 324 325 329 332 333 333 334 334 331 328 326 322 318 316 313 308 306 309 312 313 313 312 309 306 304 303 303 306 310 313 317 320 320
323 321 320 317 318 318 316 316 317 319 318 318 317 316 317 317 317 316 316 316 315 316 317 318 317 316 317 318 321 322 324 328 333 332 332 333 334 335 337 339 340 341 342 342 342 341 341 340 340 339 338 338 337 337 338 337 336 337 337 337 337 336 334 331 327 325 328 332 333 333 334 334 332 329 327 323 320 318 317 313 308 306 307 307 306 304 304 302 301 300 300 300 302 308 315 319 320
324 323 321 318 321 320 317 317 317 316 316 318 317 316 317 316 317 316 316 315 315 316 316 317 317 317 316 317 319 320 324 331 333 331 331 333 333 334 335 337 338 340 341 341 341 340 340 339 340 339 338 339 338 338 338 337 336 335 336 337 337 337 336 334 330 326 327 331 333 333 334 334 333 330 328 324 321 320 319 317 312 309 308 307 307 308 308 307 305 302 300 300 302 307 313 317 319
324 323 322 320 319 317 317 318 318 315 315 319 316 316 317 315 315 315 316 315 316 315 314 315 316 316 316 317 319 321 328 333 331 330 332 332 333 334 334 336 337 338 339 340 340 339 340 339 340 340 339 340 339 339 339 337 335 335 335 336 337 337 337 336 333 328 327 330 333 333 333 334 332 331 329 325 322 321 321 319 316 313 312 312 314 315 315 313 309 305 302 301 303 307 312 315 317
323 323 320 318 316 315 316 319 318 315 317 318 315 316 316 315 314 314 315 314 315 316 314 315 316 316 316 317 319 325 332 331 329 330 331 331 333 334 334 336 336 337 337 338 338 339 340 340 339 339 340 340 340 339 339 339 336 335 335 336 337 337 337 336 334 331 329 330 331 332 332 333 333 332 330 326 323 322 321 320 319 317 317 318 318 318 316 315 312 309 305 303 303 305 308 311 312
321 323 319 316 315 316 317 318 318 315 318 317 314 315 316 315 314 314 313 313 314 315 315 315 316 315 316 317 315 323 331 329 328 330 331 331 332 333 334 335 335 336 336 336 337 337 338 339 339 338 339 339 340 340 340 339 337 337 336 335 336 337 337 336 336 333 332 331 331 332 332 332 333 332 330 327 324 323 322 322 321 320 319 319 319 318 316 315 313 311 308 304 303 304 305 307 308
320 321 317 314 316 318 318 319 318 317 319 316 314 315 315 316 314 314 313 313 314 315 315 315 316 316 316 316 314 321 327 327 328 330 331 332 332 333 334 334 335 334 335 335 335 336 336 337 338 338 339 339 340 340 340 339 339 338 337 336 336 337 337 337 336 335 333 332 331 332 332 333 333 332 330 327 325 323 323 322 322 321 320 320 320 319 318 316 315 313 310 306 304 305 308 309 309
320 320 317 316 319 319 319 318 317 318 318 317 316 315 316 316 315 315 314 315 315 314 315 315 316 315 316 315 314 320 325 327 329 330 332 332 332 333 334 334 334 333 333 334 334 334 335 336 336 337 337 338 339 339 339 339 339 338 337 337 336 337 337 337 337 336 335 334 333 333 333 333 333 333 331 328 325 324 323 323 322 321 321 321 320 320 319 317 316 315 313 310 309 310 312 313 314
319 320 318 318 320 318 317 317 317 317 317 317 316 315 315 316 316 315 314 315 315 315 315 315 316 315 316 316 315 319 323 328 329 330 332 332 333 333 334 334 333 334 333 332 333 332 333 334 335 335 335 336 338 339 339 339 338 338 338 338 337 337 337 337 337 336 336 335 334 334 334 334 333 333 331 329 326 324 323 323 323 321 321 321 321 319 318 318 317 317 315 314 314 314 314 315 314
317 316 317 317 318 317 316 316 316 315 315 317 316 315 315 315 316 315 315 315 315 316 316 316 316 316 317 317 316 319 322 327 328 330 332 332 333 332 333 334 334 334 333 332 332 331 331 332 333 334 334 334 337 337 338 338 338 338 338 338 338 337 336 337 337 336 336 336 336 334 334 334 333 333 332 330 327 325 324 324 323 322 320 320 320 319 318 318 318 318 317 316 316 314 313 312 311
317 315 316 316 316 317 316 315 314 314 315 316 316 315 315 315 315 315 316 315 316 317 316 317 317 316 318 318 318 319 321 325 327 329 331 333 333 332 332 332 334 334 334 333 332 331 330 330 332 333 333 334 335 335 336 337 337 337 338 338 338 337 337 337 336 336 336 336 336 334 334 334 333 333 332 331 329 326 325 324 323 322 321 320 321 320 319 319 318 318 317 317 316 315 313 312 311
317 315 315 315 316 316 315 314 312 313 315 316 316 315 315 315 315 315 315 316 316 316 316 317 316 316 317 319 319 319 320 324 326 327 329 332 333 333 332 331 332 333 333 332 331 331 330 330 331 332 332 333 334 334 334 335 335 336 337 338 338 337 337 337 337 336 336 336 335 335 335 334 333 333 331 331 330 327 326 325 323 322 321 320 321 320 319 319 318 318 318 317 317 316 315 314 313
317 316 315 314 315 315 314 313 312 313 315 315 315 314 315 315 316 316 315 316 316 316 315 315 316 314 314 317 319 319 320 323 324 325 327 330 332 333 333 332 332 332 331 331 331 331 329 329 330 331 331 332 333 333 333 333 333 334 334 335 336 336 337 337 337 336 336 336 335 335 335 334 333 332 332 331 330 329 327 326 324 323 321 320 320 320 320 319 318 319 319 318 316 315 314 314 312
317 316 315 315 315 315 313 312 312 313 314 313 314 314 316 315 314 314 315 316 316 316 316 315 315 314 314 315 317 319 320 322 324 324 325 327 329 331 332 333 332 332 331 330 331 331 329 328 329 330 331 330 331 331 332 332 332 333 333 332 333 335 335 336 337 336 336 336 336 335 335 334 333 332 332 331 330 330 328 327 325 324 322 320 320 321 320 320 320 320 319 317 316 314 313 311 309
317 316 315 315 315 314 313 313 313 313 313 313 314 315 316 314 313 314 315 316 316 317 315 315 315 314 314 314 316 317 318 320 323 323 325 326 327 329 331 331 330 330 330 330 331 330 329 328 328 328 329 329 329 329 330 331 331 332 333 333 334 335 334 335 336 336 336 336 335 335 335 334 333 332 332 332 331 330 329 328 327 324 322 321 321 321 321 320 320 320 318 317 315 314 312 309 307
317 316 316 316 316 314 314 315 313 313 314 313 314 316 316 314 313 315 316 316 316 316 315 315 315 315 315 315 315 317 317 319 321 323 325 326 326 327 328 328 327 327 328 330 330 330 328 327 326 326 327 327 327 327 328 330 331 331 332 333 334 335 335 335 336 336 335 335 335 335 334 334 333 332 331 331 331 330 329 329 328 325 323 322 321 321 322 321 321 320 318 317 315 313 311 308 307
316 316 317 316 316 316 315 316 315 314 315 314 315 317 316 315 314 316 317 315 315 316 316 315 315 315 315 315 316 317 318 318 319 322 324 326 325 324 324 325 325 325 325 327 328 328 327 325 325 326 325 325 325 326 326 327 329 330 330 331 333 334 335 335 335 336 335 335 335 334 334 333 332 332 331 331 330 330 329 329 328 325 323 322 321 322 322 321 320 320 318 317 314 311 308 305 305
316 316 317 317 316 317 316 316 315 316 316 314 315 316 316 317 315 317 317 315 315 316 316 316 316 316 316 316 316 316 317 318 318 320 322 323 323 323 322 323 323 324 323 324 325 324 323 323 322 323 323 323 324 324 323 325 327 329 329 330 331 332 333 334 334 336 335 334 334 334 333 332 332 332 332 331 330 329 329 329 328 325 323 322 321 321 321 321 320 319 318 316 313 309 304 302 302
316 317 317 317 316 316 317 317 315 316 315 314 315 314 315 318 318 318 318 315 315 316 316 317 317 317 316 317 317 317 317 318 318 319 320 320 321 322 321 322 322 322 322 322 322 322 321 320 320 320 320 320 320 319 319 321 324 328 329 329 330 330 331 332 333 334 335 335 334 333 332 332 331 332 331 330 329 329 329 329 327 326 323 322 322 322 321 320 319 318 318 315 311 307 302 301 301
318 316 316 317 315 315 318 317 316 316 314 314 316 313 314 319 319 318 316 315 316 316 317 317 318 318 317 317 317 317 317 318 318 318 319 319 319 321 321 321 322 321 321 321 321 320 319 318 318 318 317 318 318 316 315 317 322 326 327 328 328 328 329 330 332 333 332 333 333 332 332 331 331 331 330 329 328 328 329 328 327 326 324 321 322 322 321 320 319 318 317 315 309 303 300 300 300
318 314 314 317 314 314 318 316 316 317 314 314 315 314 315 318 318 316 314 314 315 316 317 318 318 318 317 317 317 317 317 318 318 317 318 318 318 319 320 321 321 321 321 320 320 319 319 318 317 317 317 318 318 317 314 317 323 325 325 326 326 326 326 327 329 331 331 330 330 331 330 331 331 331 330 329 329 328 328 328 328 326 324 321 321 320 320 320 318 316 315 314 309 302 300 300 299
317 314 313 317 314 313 316 315 315 316 315 315 315 315 317 318 318 316 314 314 315 315 317 318 318 318 318 318 317 317 317 317 318 318 317 317 318 318 318 319 320 320 320 320 320 319 319 318 317 317 317 318 318 317 317 321 323 323 324 324 324 324 325 326 327 330 332 330 329 329 329 330 331 331 330 330 330 329 328 328 327 325 323 321 320 319 319 319 319 316 312 310 309 305 301 299 297
315 315 313 316 316 312 313 315 315 314 315 316 316 316 317 317 318 317 315 315 315 316 317 317 318 318 318 318 318 317 317 317 317 318 317 317 317 317 316 317 318 319 319 320 320 319 319 318 317 316 317 318 317 316 318 321 321 321 322 322 322 323 324 325 326 329 330 330 329 327 328 329 329 330 330 330 330 328 328 327 326 324 322 321 320 319 319 318 317 316 312 307 307 307 303 299 296
313 315 312 312 315 313 312 315 315 314 315 316 316 316 317 317 317 318 317 316 316 317 317 317 317 317 318 318 318 318 318 318 318 319 318 317 316 316 315 315 316 317 318 318 319 319 318 318 317 316 317 318 317 315 317 319 319 319 320 320 321 323 324 325 327 328 328 328 328 328 329 330 329 330 330 329 328 328 327 325 323 321 321 320 319 317 317 317 315 314 313 307 303 303 302 299 296
314 316 314 312 313 313 314 316 314 314 316 316 316 316 316 317 317 317 317 318 317 318 317 317 317 317 317 317 318 318 319 318 319 319 318 317 316 316 315 315 315 316 317 317 318 318 318 317 317 316 317 318 317 315 315 317 317 317 318 318 321 323 324 325 326 327 326 327 327 327 330 330 329 328 327 327 328 327 326 324 322 320 319 319 318 316 315 316 316 314 312 307 302 299 299 299 297
314 315 314 314 314 313 315 317 314 314 314 315 316 316 316 317 317 317 317 317 317 317 318 318 318 318 317 317 318 318 318 319 322 320 318 317 315 315 315 314 315 316 316 317 317 317 317 317 317 317 316 317 317 315 314 316 316 318 317 317 320 322 323 324 324 324 325 326 326 326 328 328 329 327 326 327 327 326 326 325 323 321 319 319 319 318 317 316 315 313 309 305 304 301 297 296 296
314 315 314 314 314 314 316 317 314 314 314 314 315 316 316 317 316 316 317 316 316 317 317 318 318 318 318 318 319 319 319 322 324 321 318 317 316 315 314 314 314 315 316 316 316 316 317 317 317 316 315 315 316 314 314 315 317 318 317 317 319 319 320 322 322 322 323 324 325 325 326 327 327 325 325 327 326 325 326 325 323 322 321 319 318 318 317 315 312 311 309 304 303 303 298 294 295
315 315 315 314 316 316 315 316 315 314 314 314 315 315 315 316 316 316 316 316 316 317 317 318 318 318 318 318 319 320 319 321 323 321 318 317 316 315 314 314 314 315 316 316 316 316 316 316 316 316 315 314 314 314 314 315 316 317 317 318 317 316 318 321 320 321 321 321 322 323 324 325 325 325 325 325 324 324 325 324 322 321 320 319 317 316 315 312 310 310 311 307 302 300 297 294 295
317 317 315 314 317 316 312 313 315 314 314 314 315 316 316 317 317 317 317 317 317 318 318 319 320 319 319 320 319 319 319 320 321 321 319 317 316 315 313 313 313 314 316 315 315 316 316 316 315 316 314 312 313 314 314 315 316 317 317 317 315 315 317 319 319 320 320 320 321 322 322 323 323 324 324 324 323 323 324 323 322 321 319 319 318 317 315 313 311 310 309 308 304 299 296 294 296
317 319 316 314 316 315 313 315 316 315 315 315 316 315 315 317 319 319 319 320 319 319 319 319 320 320 320 321 321 320 320 320 320 320 320 317 315 315 313 313 313 314 315 316 315 315 316 315 315 315 314 312 312 313 314 315 315 316 316 315 315 316 316 316 317 319 319 319 320 321 322 323 322 322 323 322 322 323 323 322 322 321 319 319 318 317 317 315 314 313 310 307 305 301 297 295 296
314 319 319 315 314 316 317 318 317 313 313 316 317 313 311 316 319 319 318 319 318 318 319 319 319 320 320 320 320 321 321 321 320 320 319 318 316 315 313 313 313 314 315 316 315 315 315 315 315 315 314 312 312 313 313 314 314 315 315 315 315 314 313 314 316 317 318 319 320 322 322 322 321 321 322 322 322 322 323 321 321 320 318 318 317 316 316 313 312 312 309 307 305 302 298 296 296
312 318 320 318 317 318 318 318 316 312 312 317 317 313 311 314 315 316 317 316 316 317 318 319 319 320 321 321 322 321 321 321 321 320 318 318 317 315 314 313 313 314 314 315 315 315 315 314 314 314 314 312 312 312 312 312 314 314 315 316 315 314 313 313 314 317 319 320 320 321 322 321 321 321 322 321 321 322 321 321 320 319 319 318 316 314 313 311 312 311 308 306 304 301 299 298 297
315 318 319 318 318 319 319 319 316 314 316 317 317 317 316 315 315 316 317 316 317 317 317 318 319 320 320 322 322 321 321 321 321 320 318 317 317 316 314 313 313 313 314 315 315 315 315 314 314 314 313 311 311 311 311 313 314 313 315 315 315 315 314 314 314 316 318 319 320 320 320 321 320 320 320 321 321 321 320 321 320 319 319 317 315 313 312 311 312 310 306 305 303 300 299 299 298
318 318 318 318 319 320 320 319 316 318 319 316 318 320 316 314 315 317 318 316 317 317 317 318 317 320 321 321 321 321 320 320 319 319 318 317 316 315 314 313 313 313 314 315 315 314 314 313 313 313 312 311 310 310 310 313 314 313 314 314 313 313 315 315 315 316 317 318 319 318 319 320 320 319 319 320 321 320 320 320 319 318 317 316 314 312 311 311 310 308 306 304 302 301 300 300 300
317 317 317 319 319 319 319 319 316 318 318 316 319 320 313 311 312 316 319 316 316 318 316 317 319 321 323 322 323 321 319 318 318 316 316 316 315 314 313 312 312 313 314 314 314 314 314 313 312 312 311 310 310 309 310 312 313 313 313 313 312 313 313 313 314 315 317 317 316 317 318 319 318 317 318 319 320 319 319 318 317 316 316 313 313 311 309 309 308 307 306 304 302 301 300 301 301
317 318 319 319 319 319 318 318 317 316 316 316 319 318 312 310 311 315 319 316 315 317 314 317 321 321 323 324 323 320 318 318 317 315 313 313 313 312 312 311 311 312 313 314 314 314 313 313 312 311 311 310 309 309 310 312 312 313 313 313 313 313 312 311 312 312 312 310 310 314 317 316 315 316 318 319 319 316 316 317 315 314 313 311 311 310 309 308 307 307 306 304 302 301 300 301 301
319 319 317 317 317 318 317 317 319 316 315 316 318 317 314 310 311 315 319 316 316 317 315 316 319 320 322 324 323 319 317 317 316 314 313 311 310 310 310 310 311 312 313 313 313 313 313 313 312 311 310 310 309 308 310 311 312 313 313 313 313 313 312 311 311 310 309 308 309 312 315 313 313 315 316 317 316 314 313 314 313 311 311 310 309 309 308 308 307 307 305 303 302 301 300 300 299
319 317 315 315 314 316 317 318 320 317 315 316 316 318 317 313 312 315 317 316 316 317 317 317 319 319 319 322 324 323 319 317 316 315 314 312 311 311 310 310 310 312 313 313 313 313 313 312 312 311 310 310 308 307 308 310 311 311 312 312 311 312 311 311 311 310 311 313 313 313 313 312 311 313 315 316 316 313 311 311 311 309 308 307 307 307 306 306 307 306 304 303 302 301 299 299 299
317 316 316 314 312 314 317 318 318 316 316 315 315 317 318 314 314 317 316 316 317 317 317 319 319 320 320 320 322 323 322 319 316 316 316 315 313 312 311 310 310 311 312 312 312 312 312 312 311 310 310 309 308 306 306 308 309 310 311 311 311 311 310 310 311 311 313 315 316 316 315 314 314 315 316 316 316 314 310 310 311 308 305 303 303 303 304 305 305 304 303 302 301 300 299 298 298
316 316 316 315 312 313 314 314 314 315 315 314 314 317 316 314 315 317 317 317 317 318 318 319 320 320 320 321 321 321 322 320 317 316 318 317 315 313 312 310 310 311 312 312 312 312 312 311 311 310 310 309 309 307 305 306 307 308 310 311 310 310 310 310 312 312 313 314 315 317 316 316 316 316 317 316 315 314 310 309 310 306 302 301 300 301 302 303 303 303 302 301 300 300 299 298 298
316 318 318 317 315 312 312 313 314 314 314 315 315 316 315 315 315 316 316 316 316 317 318 318 319 319 319 320 321 322 321 319 318 317 317 316 315 314 312 311 310 311 311 312 312 312 311 311 310 310 309 309 309 307 305 305 306 307 309 309 309 309 309 310 311 312 311 311 312 314 314 316 316 314 314 314 314 313 311 310 309 303 300 300 300 300 301 301 302 301 301 301 300 299 299 299 298
317 318 319 318 318 315 313 314 314 313 313 314 314 315 314 313 314 315 315 315 315 316 317 318 318 319 320 323 325 326 325 321 319 320 318 315 315 313 312 311 311 311 311 311 312 311 311 310 310 309 309 309 309 307 304 304 305 306 307 308 309 309 309 310 311 310 309 308 310 311 310 311 310 307 309 312 312 311 312 311 306 300 298 299 299 300 300 301 301 301 301 301 300 299 298 297 294
318 318 317 316 317 315 314 314 315 315 315 314 313 313 313 312 313 317 316 315 315 315 316 316 317 317 320 324 326 328 328 321 318 320 319 316 315 313 311 311 310 311 311 311 311 311 311 310 309 309 309 309 308 306 304 304 304 305 306 307 309 307 307 309 309 309 308 307 307 308 307 305 304 304 307 309 308 310 312 309 302 297 297 298 299 300 300 300 300 300 300 300 300 298 295 292 290
316 317 317 316 316 316 314 315 316 316 317 316 314 314 313 312 312 314 315 315 316 316 316 317 317 317 319 321 323 326 327 321 318 319 318 316 314 312 311 310 310 310 311 311 311 311 310 310 309 309 309 309 308 305 304 304 304 304 305 306 307 306 305 307 308 308 308 307 307 307 306 304 302 303 305 305 305 308 309 305 299 295 295 296 298 299 299 299 299 299 299 298 296 294 290 289 288
314 315 316 316 317 316 315 316 314 314 315 316 316 315 314 314 314 314 315 315 315 315 316 317 316 317 319 320 323 328 327 322 319 318 317 315 313 311 310 309 309 309 310 310 310 310 310 310 309 309 308 309 307 304 304 304 304 304 304 304 305 305 305 306 307 308 309 308 307 307 306 304 303 303 303 303 304 306 305 302 297 294 293 294 295 296 297 297 297 297 296 294 291 289 288 289 288
314 314 315 316 317 315 315 316 315 315 315 315 315 315 313 313 315 315 315 315 316 316 316 317 318 318 319 322 326 329 325 321 321 319 316 314 311 310 309 308 308 308 309 310 310 310 310 309 309 309 308 308 308 305 304 304 303 303 303 303 304 305 305 306 307 307 308 307 306 306 305 304 302 302 302 301 302 302 301 299 296 293 292 291 292 292 293 293 293 292 291 289 288 288 288 288 288
316 314 315 316 316 316 316 317 317 316 316 315 315 315 314 314 316 315 314 315 315 315 316 316 318 318 319 325 329 326 321 320 320 318 314 312 310 309 308 307 307 307 308 309 309 309 309 309 309 309 308 308 308 305 303 303 303 303 303 303 304 305 305 304 304 304 305 305 304 303 303 302 301 301 300 299 299 299 297 296 294 292 291 290 290 290 290 290 289 289 288 288 288 288 288 288 288
Wind_Speed
3 2 2 2 2 4 5 4 3 2 2 1 3 2 4 4 2 4 5 4 3 4 4 3 3 2 1 4 6 6 5 6 6 3 2 5 6 9 9 9 10 10 11 10 10 10 10 12 12 11 11 11 10 11 11 12 12 12 12 13 12 12 12 12 12 12 12 13 13 13 14 13 13 15 15 16 17 17 19 20 19 19 19 18 18 18 18 17 17 17 17 18 18 18 19 18 18
2 3 3 3 4 5 1 2 3 2 3 3 3 2 6 4 3 4 5 4 5 5 3 3 2 1 3 5 5 4 3 7 7 5 5 10 9 7 8 9 10 11 11 10 10 11 10 11 12 11 11 11 10 11 12 12 12 12 12 11 11 11 11 12 12 11 12 12 12 13 13 13 14 15 15 16 16 17 19 19 19 19 19 18 18 19 18 18 17 17 18 18 18 18 18 17 18
2 2 3 4 6 6 2 3 3 1 1 3 4 3 5 4 3 5 7 8 8 6 4 3 2 2 2 4 3 4 2 6 6 7 7 11 10 8 9 10 11 11 11 10 10 11 10 11 12 11 10 11 11 11 11 11 12 12 11 10 10 11 11 11 11 11 11 11 12 13 13 13 14 15 15 16 16 17 19 19 19 19 19 18 19 19 18 18 18 18 17 17 18 18 18 18 19
2 3 5 4 4 5 3 3 2 2 0 3 4 5 4 3 6 8 9 8 7 5 4 3 2 2 4 4 3 3 2 5 6 6 7 9 8 11 11 10 12 11 11 10 10 11 10 12 12 11 10 11 12 11 11 11 11 11 11 10 10 10 10 10 10 11 11 11 11 12 13 13 15 15 15 16 16 17 18 19 19 19 19 19 19 19 18 18 18 18 17 17 18 19 20 20 19
2 4 6 5 4 1 2 1 2 2 3 3 2 5 4 4 7 8 9 8 6 4 3 2 2 3 2 3 3 2 3 6 5 5 7 8 8 11 10 10 12 11 11 10 11 11 11 13 13 12 11 11 12 11 11 11 11 10 10 10 10 10 11 11 10 10 10 11 11 12 12 13 14 15 15 16 16 17 18 19 18 18 19 19 19 18 18 18 18 18 18 18 18 19 19 19 18
2 5 6 6 2 1 3 2 1 2 5 4 3 6 5 5 7 9 9 8 6 3 2 2 1 1 2 1 1 3 4 4 7 6 6 9 8 9 9 11 12 12 12 11 11 10 11 14 13 13 12 11 12 11 10 10 10 10 9 9 11 11 11 11 10 10 10 11 11 12 12 13 14 15 15 15 16 17 18 18 18 18 18 18 18 17 17 17 17 17 17 17 17 18 18 18 17
4 4 4 5 2 1 4 1 1 3 4 4 4 5 6 6 7 10 9 7 5 3 2 2 2 4 2 3 2 3 5 3 7 6 6 10 9 8 10 12 12 12 12 11 11 9 12 14 14 14 13 11 11 11 10 9 9 9 8 8 11 12 12 11 11 10 10 10 11 11 11 12 14 15 15 15 15 16 17 18 18 18 18 18 18 18 17 17 16 17 17 17 17 18 18 18 17
5 3 1 3 3 1 3 1 2 3 4 2 3 4 5 7 7 8 9 5 4 5 4 4 3 5 1 2 2 5 6 5 7 8 9 9 8 8 10 12 12 13 12 12 11 10 12 14 14 14 14 12 11 11 10 9 9 8 7 7 10 12 12 12 11 11 10 10 10 11 11 12 13 14 15 15 15 15 16 17 18 18 18 18 18 18 18 17 17 18 18 18 19 18 18 17 18
5 3 1 3 3 2 2 1 2 2 4 4 4 4 4 6 6 6 7 5 4 4 4 4 4 3 2 3 2 6 6 6 7 9 9 8 8 8 10 12 12 13 13 12 12 11 13 15 14 14 14 13 11 11 11 10 9 8 7 7 9 11 12 12 12 12 11 10 11 11 11 12 13 14 14 14 15 15 15 17 17 18 18 18 18 18 18 18 18 18 18 19 19 18 17 17 18
5 3 2 3 2 2 2 1 2 3 4 4 5 6 5 6 5 5 6 5 4 4 4 3 3 3 1 3 4 4 7 9 8 8 8 8 8 8 10 11 11 13 13 12 12 11 15 16 15 14 14 14 13 12 11 10 10 9 8 8 9 10 11 11 11 12 12 11 10 11 11 11 12 13 14 14 14 14 15 16 16 17 18 17 17 17 17 17 17 17 18 18 18 17 17 17 17
4 3 2 4 3 3 2 2 3 3 5 4 5 6 6 6 6 5 4 4 4 3 4 3 4 4 4 2 3 5 9 11 8 9 9 8 9 9 10 9 9 12 13 13 11 11 14 17 16 14 15 14 14 13 12 11 10 10 9 9 9 9 10 10 11 12 12 11 10 10 10 10 11 13 13 13 13 14 14 15 16 16 17 16 16 17 17 18 17 17 17 17 17 17 17 17 17
4 4 3 4 4 2 1 1 2 3 5 5 6 7 5 7 7 6 6 4 4 4 5 6 1 1 6 3 3 7 10 10 8 10 10 9 9 10 10 9 8 8 11 12 11 10 12 16 17 15 15 14 15 14 12 12 12 11 10 10 9 9 9 9 10 11 12 11 10 10 10 10 11 12 12 12 13 13 14 15 15 16 16 16 17 17 18 18 18 18 19 18 18 18 18 18 18
4 4 6 4 2 1 1 1 2 2 3 5 6 8 7 8 7 6 6 5 5 6 4 6 1 2 5 2 5 7 10 10 10 11 10 9 9 10 10 10 8 6 9 11 9 10 11 12 15 16 16 15 15 15 13 13 13 12 11 11 10 10 9 9 10 11 12 11 10 10 11 11 11 11 11 12 12 13 13 14 15 16 16 17 17 17 17 18 19 19 20 20 20 20 20 20 20
3 2 5 3 0 2 1 1 2 2 2 6 7 9 8 6 6 4 4 6 5 2 2 3 1 2 4 2 5 6 9 13 12 11 11 10 9 9 10 9 8 7 8 9 7 10 13 11 12 16 18 16 15 15 14 14 14 13 12 11 11 10 10 10 10 11 13 12 11 11 11 11 11 11 11 11 12 12 12 14 15 16 16 16 16 16 16 17 18 20 20 21 21 21 21 20 20
2 1 4 2 1 3 2 2 1 3 2 9 7 9 9 3 2 4 4 5 2 4 3 2 1 2 2 1 3 6 12 15 13 12 11 10 9 9 9 8 8 8 7 8 8 10 14 14 12 14 16 16 15 14 14 15 15 14 13 12 11 11 11 11 11 12 13 13 12 12 12 11 11 11 11 11 11 12 12 14 15 15 16 16 16 17 17 17 18 19 20 21 21 21 21 20 20
3 2 4 4 3 4 4 3 1 3 3 10 7 9 10 5 3 4 1 2 1 4 2 3 3 2 4 3 5 10 14 15 13 13 12 11 9 8 8 7 8 8 8 9 9 10 13 16 16 14 13 14 15 14 13 14 16 15 14 14 13 13 13 12 12 13 13 13 12 12 11 11 11 11 11 11 11 12 12 13 14 15 15 16 16 17 17 18 18 19 20 20 21 21 20 20 20
2 3 4 4 4 4 4 5 3 1 4 9 8 9 9 7 5 3 2 2 4 3 4 4 4 3 2 5 8 10 13 13 13 13 13 13 11 10 9 8 10 8 8 10 11 11 11 13 16 16 14 14 15 15 14 14 16 17 16 15 14 14 13 13 14 14 13 13 13 12 11 11 11 12 12 12 11 11 12 13 14 15 15 16 16 17 18 19 19 20 20 21 21 21 20 21 20
3 4 5 5 4 3 4 5 2 1 3 7 9 10 9 7 7 4 2 5 7 4 6 6 5 5 3 8 10 11 12 12 13 14 14 14 13 13 12 11 15 13 11 12 13 13 13 12 13 14 15 17 17 16 16 15 15 18 17 16 16 14 15 15 15 15 14 14 13 12 12 12 12 13 13 13 13 12 12 12 14 15 15 16 17 17 18 19 20 21 21 22 22 22 21 21 21
4 3 5 4 1 2 1 1 2 2 1 6 9 9 8 4 7 7 5 8 9 9 9 9 9 8 8 11 11 12 13 13 14 15 15 15 14 15 16 15 17 16 15 16 16 15 14 15 15 14 13 16 17 16 16 15 14 17 17 16 17 16 16 16 16 16 15 16 15 13 12 11 11 14 15 14 15 13 12 12 13 15 16 16 17 18 19 19 21 22 23 22 22 20 18 18 18
2 2 5 2 3 4 3 2 4 5 4 3 8 7 6 2 4 7 6 9 9 10 9 9 10 11 11 13 13 14 14 14 15 15 15 15 15 15 16 17 18 18 16 16 17 17 16 16 17 17 15 13 14 14 13 14 14 16 17 16 16 18 18 17 17 17 16 16 16 14 13 12 11 13 15 15 15 15 14 13 13 15 16 17 18 20 21 21 22 22 22 19 17 16 14 14 14
2 2 3 2 2 2 3 3 5 6 4 1 6 5 6 3 2 5 6 9 8 9 11 10 10 10 11 14 14 15 15 15 16 16 16 17 16 15 15 16 17 17 16 15 15 18 18 18 18 18 17 14 14 14 12 13 14 15 18 17 16 18 19 18 17 17 17 17 17 16 15 15 13 13 15 16 16 17 17 15 15 16 18 18 19 21 23 22 21 20 17 14 14 15 15 13 14
2 2 2 4 1 1 3 3 4 4 3 1 5 4 4 4 3 7 8 10 6 2 4 6 4 2 4 13 14 14 15 15 16 17 18 18 18 17 15 14 14 16 16 15 15 17 18 18 18 16 15 15 14 14 13 14 14 13 17 18 18 17 17 20 18 17 18 18 17 16 15 15 15 14 16 16 17 19 19 18 18 18 19 20 20 21 22 19 17 16 14 13 13 15 16 16 17
2 2 3 4 3 3 3 2 3 2 1 1 2 1 2 3 6 7 10 14 6 5 6 4 5 5 4 10 13 13 14 15 17 19 20 19 19 19 17 15 15 15 16 16 15 15 17 18 18 17 15 14 14 15 15 14 13 12 13 16 18 17 17 19 19 18 18 18 18 18 17 16 15 15 18 17 17 20 21 20 20 20 21 22 20 20 19 15 14 16 15 13 14 16 17 17 19
3 2 5 3 4 4 3 3 2 1 1 1 2 2 2 7 6 3 8 15 11 1 5 4 4 4 2 6 11 12 13 15 17 19 19 19 19 19 18 16 15 15 15 16 16 14 16 17 18 18 17 15 15 16 16 14 13 13 14 16 16 16 18 19 20 20 19 19 19 18 19 18 17 16 18 20 19 20 22 23 23 23 22 21 19 19 17 15 17 18 16 15 16 17 17 18 19
4 3 6 3 3 4 4 3 3 2 0 2 2 4 5 4 2 4 11 14 13 7 5 4 2 2 3 6 9 10 12 14 16 16 17 17 17 18 18 16 15 15 16 17 17 15 15 17 17 18 18 17 16 16 17 16 15 13 14 17 17 17 20 20 21 20 18 19 20 19 18 19 19 17 18 21 20 20 22 24 25 25 24 22 20 20 19 19 21 20 19 19 18 18 18 19 20
1 5 6 5 5 4 4 4 4 2 1 0 3 6 3 1 2 8 16 15 8 5 5 5 5 6 7 7 9 10 11 12 14 15 15 15 15 17 18 17 16 16 16 17 17 16 15 17 17 18 17 16 16 16 17 18 18 15 14 17 19 19 21 20 21 22 20 19 20 21 19 18 19 18 19 20 19 20 23 24 24 26 26 24 24 24 23 24 24 22 21 21 20 19 19 20 20
4 7 6 5 5 4 3 4 5 2 2 2 5 6 3 3 1 9 9 5 4 5 7 7 7 9 10 9 9 10 11 12 14 14 14 14 15 17 18 17 18 17 16 17 17 16 16 16 17 17 16 15 16 15 16 18 19 19 16 15 18 21 21 20 22 25 24 20 17 19 19 18 18 17 19 19 17 19 21 24 24 26 28 24 25 25 24 25 24 23 22 21 22 21 20 20 21
4 6 6 6 5 5 4 4 5 3 2 2 5 6 7 3 4 13 6 4 4 6 8 8 8 9 10 10 9 8 10 11 12 13 15 16 16 17 19 19 20 18 17 18 17 16 16 17 18 18 18 19 21 20 17 17 19 20 18 15 17 20 20 20 23 26 25 21 17 16 16 17 18 18 18 19 20 20 21 24 25 27 29 26 26 26 26 26 25 25 24 23 23 22 20 20 21
4 5 5 7 5 5 7 5 4 3 2 2 2 5 11 9 13 18 8 6 4 5 7 8 9 9 8 9 8 7 9 10 11 13 15 16 16 16 18 19 19 18 17 18 17 16 16 17 18 19 20 21 25 24 19 17 19 20 20 18 16 18 19 18 19 23 25 21 18 17 15 14 18 19 18 19 20 21 22 24 26 28 29 28 28 27 27 28 27 26 25 24 24 23 21 21 20
5 4 3 4 5 6 7 5 4 3 2 4 2 5 8 10 17 15 5 6 5 6 9 9 9 8 8 8 8 8 9 10 12 14 15 15 15 15 16 17 18 18 16 17 18 18 17 17 18 18 20 21 23 24 21 18 18 20 22 19 16 17 19 19 16 17 22 23 21 19 17 16 18 18 19 19 18 20 23 25 27 29 30 30 29 28 28 28 28 28 26 24 25 24 22 21 21
4 3 3 3 4 3 7 5 5 5 3 4 4 5 7 8 7 5 5 5 6 9 11 10 10 8 7 7 8 8 9 11 14 15 15 15 15 14 15 16 17 17 16 17 19 19 18 19 22 21 21 20 20 22 23 20 18 20 22 21 20 19 19 23 20 15 17 20 22 22 20 18 20 20 19 18 18 20 23 25 28 30 31 32 31 30 30 29 29 28 27 26 25 24 22 21 22
3 3 3 4 3 3 6 4 5 5 2 6 6 5 8 9 1 6 3 2 5 10 11 10 10 9 8 7 7 8 9 11 14 16 15 16 16 15 15 16 17 18 17 17 18 19 19 20 24 23 21 19 19 21 21 19 17 18 20 21 23 21 18 23 26 21 17 17 18 22 22 22 24 24 23 19 18 20 21 24 29 31 33 34 33 32 32 31 30 29 28 28 27 25 23 22 22
4 5 3 4 5 4 5 4 3 2 2 7 10 6 6 4 2 5 3 3 5 8 10 10 10 9 8 7 7 7 8 9 12 15 16 16 17 17 17 17 18 18 19 18 18 20 19 19 22 22 19 19 19 19 17 18 17 17 19 20 22 20 16 20 27 27 23 21 17 17 21 24 25 27 26 21 20 20 20 24 28 31 33 34 33 32 32 31 31 30 29 27 27 26 25 24 23
5 5 4 3 5 4 2 4 4 3 3 6 10 10 11 9 6 4 6 7 7 8 9 10 10 9 9 7 7 8 8 9 10 13 16 18 18 19 18 18 19 19 20 20 19 20 20 18 21 22 18 17 19 19 18 18 16 16 18 20 22 21 17 17 24 27 25 25 23 19 20 23 25 27 26 23 21 21 22 25 29 31 33 33 33 33 32 32 31 30 29 27 25 26 26 25 24
4 5 4 4 5 6 4 2 4 4 5 7 9 11 14 15 14 13 11 10 11 11 12 12 12 12 11 10 10 10 10 10 11 12 15 18 18 19 18 18 19 20 20 21 20 19 19 18 19 21 19 16 19 18 17 16 15 16 17 18 22 24 21 20 22 25 24 25 27 26 24 24 24 25 25 23 23 23 24 27 29 31 33 33 33 33 33 34 32 31 30 27 24 23 25 26 25
1 1 3 3 3 4 3 4 3 2 4 7 11 12 15 15 14 14 14 13 14 15 14 12 11 11 11 12 12 12 12 12 11 11 13 17 19 19 18 18 20 21 20 20 20 19 19 19 18 19 19 17 17 15 14 16 19 19 16 16 23 25 25 24 23 24 24 25 27 28 26 24 24 24 23 22 22 23 25 27 28 30 31 32 33 32 33 34 33 32 30 28 25 22 23 26 26
2 1 3 3 3 2 2 5 4 1 4 8 10 12 16 16 14 14 14 14 16 16 16 14 12 11 11 12 14 14 14 11 8 11 14 16 17 17 18 17 18 19 19 20 21 21 20 20 18 19 20 19 18 16 16 19 23 21 17 17 22 24 25 25 24 24 25 26 26 26 25 25 26 24 22 23 24 24 25 26 27 28 30 32 33 32 32 33 33 33 30 28 27 25 24 26 28
2 3 3 3 4 3 3 5 3 2 2 7 9 12 16 17 14 13 13 15 17 17 16 16 15 13 12 13 16 14 12 8 7 10 13 14 15 17 17 17 18 20 21 22 22 22 20 20 19 20 21 21 20 18 17 20 22 20 17 17 18 21 24 25 24 26 26 26 26 26 26 27 27 25 24 25 27 26 27 26 27 28 30 32 32 32 32 33 33 33 32 28 25 26 26 27 30
3 3 3 3 2 2 3 5 2 2 2 6 9 10 15 18 17 15 15 16 17 17 16 15 14 14 13 14 14 12 11 10 9 10 12 15 15 17 16 16 18 20 20 21 21 21 21 20 20 20 22 24 22 19 19 20 19 18 17 15 16 19 23 24 25 26 24 24 26 27 28 28 27 26 26 27 29 28 27 27 28 29 30 33 32 32 34 34 33 33 33 29 25 24 24 28 29
4 3 4 3 0 1 1 2 2 4 4 7 11 10 12 16 16 15 16 16 16 16 15 14 13 13 15 14 12 11 12 12 11 10 11 14 15 16 17 16 17 18 18 20 21 21 21 22 21 21 23 25 23 21 20 19 20 21 21 19 20 22 23 24 24 23 22 24 26 28 29 28 26 26 27 29 30 29 28 28 30 31 32 34 33 34 37 36 35 34 31 30 29 25 22 26 26
6 6 6 5 3 3 2 2 3 5 6 5 9 9 8 10 12 11 8 8 10 12 11 12 12 12 13 13 12 13 14 12 11 11 9 11 14 15 17 16 16 17 18 20 22 22 21 22 22 21 22 24 23 21 20 21 24 27 25 22 22 22 22 23 24 23 25 26 28 29 29 28 27 27 28 30 31 30 28 29 31 32 32 34 35 36 38 38 37 34 30 30 31 29 26 27 24
5 7 7 8 7 5 3 4 6 5 4 2 3 7 5 4 7 9 5 4 8 9 9 11 11 11 11 11 11 11 12 11 10 10 8 8 12 14 15 16 16 17 19 19 21 21 20 19 21 20 20 22 22 20 22 26 28 29 29 26 25 25 24 25 27 28 29 28 28 29 29 28 28 28 29 31 32 30 28 29 32 33 32 34 36 36 36 36 35 33 31 31 31 30 29 28 25
4 2 3 6 6 4 4 5 4 4 4 1 2 6 6 5 9 12 11 12 14 12 10 12 11 9 10 9 9 8 8 8 7 8 8 8 10 12 14 16 17 17 18 18 19 20 19 18 20 21 19 20 21 21 24 29 30 30 31 30 29 28 27 26 27 28 29 27 27 28 30 29 29 29 30 32 34 31 29 30 32 33 32 33 35 34 32 33 34 32 30 32 31 29 28 26 26
2 1 3 0 2 2 2 3 4 4 7 3 6 5 8 8 9 13 14 14 15 13 11 11 11 10 10 8 6 6 5 4 4 5 8 9 9 11 13 15 16 16 17 17 18 19 20 19 20 21 19 20 21 22 27 32 31 30 32 30 27 29 28 26 26 26 27 27 27 30 31 31 30 30 32 34 34 32 32 32 32 33 33 33 33 31 30 31 33 32 29 30 29 28 27 25 25
1 2 3 4 3 0 1 2 4 3 6 6 5 5 7 8 5 9 12 13 12 12 11 12 12 8 6 5 4 2 2 2 2 4 5 6 8 9 11 12 14 15 16 17 17 18 18 18 19 20 19 20 20 23 29 32 32 31 31 29 25 26 26 25 25 26 27 28 29 31 31 32 32 32 34 35 33 32 32 32 33 33 32 32 32 29 28 30 31 33 32 30 28 26 26 22 20
3 5 5 6 4 2 2 2 4 2 6 7 6 8 5 10 6 7 8 8 9 10 10 10 7 3 4 3 2 2 2 2 1 2 2 2 4 6 8 9 12 14 15 16 16 17 18 18 19 19 19 18 18 24 31 32 33 32 31 30 28 24 22 23 25 26 27 29 30 31 32 33 33 33 34 35 33 32 32 33 33 33 32 31 31 28 27 29 30 32 33 30 27 24 22 17 15
7 7 5 5 3 2 1 2 1 3 7 5 6 10 5 8 8 5 7 7 9 8 7 6 3 6 5 4 4 3 3 3 2 2 3 3 3 4 7 9 11 13 14 15 16 17 18 18 19 20 20 19 18 24 32 33 34 34 32 32 31 27 23 23 26 27 27 28 29 31 33 33 32 33 34 34 33 32 33 33 33 32 32 31 31 30 29 31 32 33 33 31 27 24 21 18 15
5 5 4 3 2 2 2 3 2 5 7 0 3 5 6 7 7 4 6 6 8 5 5 5 2 4 3 3 5 4 3 3 3 3 4 5 5 5 7 9 11 13 14 16 17 17 18 19 19 20 20 20 18 22 31 34 34 35 34 31 29 28 26 25 27 28 29 29 30 31 32 31 31 32 33 32 32 31 32 33 32 31 31 31 32 31 30 32 33 34 35 33 30 27 23 20 17
4 4 6 4 3 4 4 5 4 6 5 2 2 1 5 11 13 6 4 5 7 6 5 6 5 4 4 2 3 4 4 4 4 4 4 5 6 7 9 11 12 14 15 17 18 18 19 19 20 20 20 20 18 20 28 34 34 35 36 31 27 27 27 29 29 29 31 33 33 32 32 32 32 32 34 33 32 32 31 32 31 30 30 31 32 32 31 32 33 34 35 34 32 29 25 21 19
8 7 7 6 5 5 7 6 5 5 3 2 2 1 4 11 11 10 13 12 10 10 8 7 6 7 9 6 2 2 4 6 5 4 4 5 6 7 10 12 13 14 15 17 18 18 18 19 20 20 18 19 19 19 25 32 34 35 36 34 29 27 28 30 31 30 31 34 34 35 35 34 35 36 36 34 33 33 32 32 31 30 30 30 31 32 31 32 33 33 34 34 32 29 26 22 19
10 8 7 7 6 7 7 5 6 6 2 1 3 3 5 7 3 2 4 5 5 6 6 6 6 7 7 5 5 6 5 5 5 4 6 6 7 8 10 11 13 14 15 17 17 18 18 18 19 19 18 19 21 21 23 28 32 33 35 33 29 28 29 30 30 29 30 33 36 37 36 36 37 37 36 35 34 34 33 32 31 30 31 31 31 31 31 32 32 32 33 33 31 28 25 22 19
7 5 6 8 5 6 5 2 1 2 2 2 4 4 6 6 8 9 7 4 5 5 5 5 7 7 5 4 6 8 5 4 4 5 7 7 8 9 10 11 12 14 15 17 17 18 19 18 18 19 19 20 22 24 23 26 30 32 34 34 30 29 30 30 30 30 29 32 36 37 37 37 37 35 35 35 34 34 34 33 32 32 31 31 30 31 31 31 32 32 31 31 30 27 24 21 19
5 5 6 3 2 2 5 2 3 2 5 6 5 7 8 8 14 15 13 14 13 11 9 8 8 7 5 4 7 6 3 3 4 5 5 6 8 10 10 11 13 14 15 16 17 18 19 18 18 19 19 20 23 24 23 24 29 31 33 35 33 31 31 32 31 30 30 30 33 35 34 33 32 31 33 35 35 34 34 33 32 32 31 30 30 30 31 31 31 30 30 29 28 25 22 20 18
3 5 5 3 4 1 4 5 2 3 8 6 6 11 10 8 9 5 4 10 12 11 11 9 9 9 7 7 9 5 4 5 5 5 5 6 7 9 10 10 12 13 14 15 16 17 17 18 18 18 20 21 22 23 24 25 29 32 33 36 35 32 31 33 31 30 30 30 31 32 31 29 28 29 32 35 34 34 35 34 32 31 31 30 29 29 29 29 29 29 28 27 25 23 21 20 19
1 1 1 2 2 4 5 6 5 6 9 6 8 12 10 10 11 6 3 6 7 7 9 8 8 9 8 8 9 4 5 6 5 6 6 5 6 8 9 9 10 12 13 14 16 17 17 17 18 18 19 21 21 22 25 27 29 32 34 35 35 32 31 33 32 30 31 31 31 32 32 29 28 30 32 34 34 35 35 34 33 31 30 29 28 28 28 28 28 27 26 25 24 23 23 22 21
1 3 2 2 2 4 4 5 5 6 8 6 8 10 9 11 11 11 13 12 11 11 9 8 8 8 8 7 6 1 4 4 5 6 5 4 5 7 9 9 10 12 13 14 16 17 17 17 18 18 19 20 21 22 26 29 29 31 33 34 35 33 32 33 33 31 31 32 32 32 33 32 30 31 33 34 35 35 35 35 33 32 30 29 28 28 27 27 27 27 26 26 25 25 25 23 22
6 6 6 5 3 1 2 4 4 5 6 6 7 8 10 11 7 10 15 12 11 10 7 6 6 6 7 6 2 0 0 2 3 3 3 3 4 6 7 8 9 11 13 14 16 17 18 18 18 19 19 21 22 21 24 28 29 30 31 33 35 34 33 34 34 33 33 32 33 33 33 32 32 32 33 34 35 35 35 35 34 33 31 30 29 29 28 28 28 27 27 27 28 27 25 24 23
9 9 10 10 8 5 4 6 5 3 4 6 6 7 13 11 2 6 12 8 6 5 4 5 4 6 7 3 1 1 1 3 1 2 3 3 4 6 7 8 9 10 12 15 17 18 19 20 20 20 21 22 22 21 22 24 27 31 31 32 34 34 33 33 33 33 33 33 33 33 32 32 32 33 33 34 35 34 34 34 34 34 32 31 31 30 30 29 29 29 29 29 29 27 26 24 23
Wind_Direction
325 296 274 240 219 250 237 235 241 185 248 104 98 138 100 68 84 138 132 126 128 83 51 65 48 23 25 354 350 355 10 4 7 355 27 100 143 138 132 139 145 150 146 145 149 149 147 142 138 140 149 157 148 142 144 142 138 133 127 120 116 115 112 109 106 103 98 95 94 94 88 82 78 76 74 73 75 77 81 83 82 83 84 86 90 93 94 95 94 91 90 89 87 84 80 79 79
320 314 282 242 223 249 235 215 261 174 204 128 97 51 96 124 179 141 116 96 69 76 84 78 88 104 13 351 319 304 44 43 42 59 81 127 140 126 139 150 153 158 153 151 152 151 151 148 144 144 153 158 150 145 146 142 138 133 127 121 119 119 115 111 109 106 100 96 95 95 90 85 82 78 76 75 77 81 84 85 84 85 86 88 91 93 94 94 94 92 91 89 84 79 78 78 80
289 286 251 234 223 239 239 220 269 249 207 105 98 85 118 159 144 103 83 78 75 92 101 88 118 143 228 256 296 301 80 78 84 88 105 142 151 149 154 154 159 162 157 155 153 151 151 154 150 148 156 161 156 150 150 145 139 134 129 127 127 124 118 116 112 108 102 99 98 96 92 87 84 80 77 77 80 83 87 87 87 88 88 91 92 94 95 94 91 89 88 85 79 77 78 78 80
269 235 226 248 233 224 243 238 300 303 16 78 103 111 143 152 111 93 84 84 85 105 110 125 147 111 241 263 347 317 104 100 95 93 130 148 137 142 155 158 161 164 160 159 154 150 155 161 156 152 157 163 163 155 154 149 142 138 134 136 136 133 125 120 116 111 106 102 101 99 94 89 85 82 80 81 83 86 89 90 89 90 91 93 94 94 96 97 97 94 90 87 85 84 83 82 81
267 239 238 264 266 239 278 266 283 299 38 33 82 120 147 128 114 104 99 98 96 106 100 180 158 96 251 294 334 304 93 106 114 100 126 131 115 136 157 161 162 167 165 163 156 155 166 169 160 155 156 162 166 159 155 151 146 142 139 143 143 139 132 124 120 114 111 106 104 102 96 91 88 83 81 82 85 88 91 92 91 92 94 95 94 93 92 94 95 94 94 93 92 91 89 87 84
241 237 232 248 280 327 263 233 220 73 52 1 50 114 132 118 123 116 111 107 105 89 88 215 298 133 206 134 334 0 54 111 133 120 119 135 142 148 157 162 167 171 167 166 160 160 170 170 163 156 157 164 167 162 157 155 151 146 143 147 148 143 137 131 124 118 115 112 108 105 98 94 91 86 83 82 86 90 93 93 92 93 96 96 96 96 94 92 91 92 93 94 94 93 92 89 87
264 232 205 219 199 257 255 255 24 70 64 2 45 109 127 124 124 125 132 128 136 134 165 219 325 269 202 121 169 79 68 82 119 118 119 140 154 159 160 165 173 174 169 168 163 163 169 168 165 159 161 168 170 167 162 162 158 152 148 149 153 147 141 137 129 122 118 116 113 108 103 98 93 87 84 84 87 90 94 95 94 94 96 97 96 97 97 95 94 93 92 94 95 95 92 89 89
266 248 206 235 197 225 269 64 43 39 71 61 66 86 102 128 136 141 150 146 156 154 178 199 244 259 145 136 204 111 109 86 102 115 121 138 152 159 164 171 177 178 173 169 168 174 177 169 167 165 163 168 171 172 169 169 164 157 154 153 156 148 144 144 137 129 124 121 119 115 109 102 96 91 88 88 90 92 94 96 97 97 97 96 96 96 96 96 96 95 95 95 95 94 93 92 93
242 245 229 249 224 203 252 107 94 66 98 123 117 96 89 134 153 155 159 151 147 158 168 166 213 254 118 167 121 120 146 116 121 131 129 140 152 161 166 177 182 179 176 173 173 181 184 174 172 172 166 167 172 175 175 174 171 164 159 153 154 150 147 150 147 138 131 127 124 122 116 107 100 95 93 92 93 95 96 97 99 100 100 99 98 98 97 97 97 99 98 96 95 96 97 98 96
221 238 238 245 239 203 212 153 119 105 114 123 123 133 138 148 164 169 172 159 142 164 133 107 213 243 280 186 125 122 144 133 140 137 134 143 152 167 169 178 185 182 178 176 177 178 184 180 178 180 173 170 174 178 179 180 178 172 166 155 151 148 147 149 151 144 136 131 130 128 119 111 104 99 96 95 96 97 99 100 101 102 102 102 102 102 102 101 101 104 104 97 94 97 102 102 99
215 208 255 249 226 225 215 129 120 114 123 139 132 135 148 157 173 179 182 164 149 174 127 139 221 230 250 220 114 106 127 140 148 142 144 148 156 168 173 181 184 186 181 176 181 177 181 185 183 186 184 177 178 182 182 183 185 181 174 163 156 150 147 148 151 150 143 137 138 134 126 118 108 104 101 100 101 101 102 104 105 105 105 107 108 108 107 106 106 108 109 103 98 101 107 107 103
227 188 214 239 232 239 19 70 123 120 137 165 152 139 152 162 176 184 193 190 169 199 175 181 227 314 232 215 112 126 138 153 149 147 147 147 161 168 176 185 180 186 184 177 179 175 180 187 188 192 191 186 183 185 187 186 187 186 181 173 167 161 157 153 152 153 150 145 145 141 133 126 117 112 107 107 108 107 108 107 108 108 109 110 110 110 109 109 109 109 109 108 107 108 110 108 107
245 198 208 233 278 311 12 345 119 128 174 173 148 139 156 167 186 195 191 200 192 207 186 168 145 313 250 127 112 141 150 157 146 146 148 153 166 168 175 186 182 177 182 178 177 177 179 185 190 196 196 193 191 190 192 191 190 189 187 182 177 174 168 162 156 156 155 151 150 149 143 134 127 121 115 115 116 115 113 112 112 111 112 112 111 110 109 109 109 108 107 108 109 111 111 111 110
280 215 231 236 22 266 274 296 140 217 193 128 123 139 163 175 192 210 196 206 199 184 103 108 144 261 257 163 146 157 152 150 143 144 149 158 167 172 176 185 184 173 178 180 186 187 182 182 188 198 200 197 197 196 196 197 198 194 193 191 188 185 177 172 166 159 158 157 157 155 151 143 135 128 123 123 124 123 119 116 116 116 116 114 112 110 108 108 107 107 107 108 109 111 112 113 112
309 244 250 246 197 228 218 262 195 247 149 117 134 147 164 171 167 214 224 223 153 82 87 111 204 253 284 232 135 124 140 143 141 145 150 159 168 175 177 185 186 183 186 183 195 200 192 189 185 193 200 199 200 199 199 202 203 200 199 198 196 193 186 182 174 165 164 165 165 162 158 152 141 134 129 129 131 129 126 122 120 119 117 114 111 108 106 105 105 107 107 108 109 112 114 114 113
306 261 234 235 219 216 190 210 193 239 124 116 145 150 164 170 165 213 255 326 32 101 164 175 181 254 341 28 89 105 130 139 142 147 152 161 166 176 179 183 188 191 197 192 196 199 197 194 190 192 195 198 203 201 200 204 206 205 203 201 202 200 196 190 180 174 173 172 170 169 166 159 148 142 138 137 139 138 133 128 124 122 119 115 111 108 107 105 104 105 106 107 108 110 112 113 112
284 243 225 227 214 211 179 187 186 204 101 117 151 159 174 169 166 215 60 298 253 165 204 201 171 232 349 85 114 121 133 138 144 154 160 166 169 178 183 184 190 194 200 202 200 197 196 193 193 198 197 197 201 202 202 204 207 209 206 204 205 205 205 197 188 182 177 178 175 172 171 164 155 148 146 146 146 145 139 133 129 127 123 119 115 111 108 106 106 105 105 105 106 108 109 111 112
239 215 222 231 213 197 169 190 187 40 112 141 160 172 189 174 166 173 144 222 233 221 218 211 200 212 148 114 125 136 145 149 156 167 170 174 177 181 186 189 196 202 202 205 208 206 202 198 199 202 204 202 201 204 205 206 208 209 208 207 207 209 211 201 192 190 183 180 177 175 175 166 160 155 153 153 152 151 146 141 135 133 129 124 120 115 113 111 110 108 108 109 109 108 107 108 109
236 221 229 236 192 93 80 233 120 38 1 145 156 180 197 179 159 163 201 219 212 227 228 212 220 215 167 143 146 147 154 164 169 178 181 183 185 185 188 190 198 204 202 202 206 207 203 202 204 204 212 210 204 202 200 203 205 205 207 208 208 208 213 204 194 197 189 184 180 178 179 171 167 160 157 159 157 155 152 149 142 137 134 130 125 120 118 116 114 113 111 110 107 104 102 103 102
242 242 236 207 84 87 53 7 79 54 11 149 156 172 192 173 137 158 214 235 215 226 233 215 219 219 190 167 162 160 163 173 179 188 192 194 196 192 191 191 197 202 199 197 200 203 199 200 201 203 210 208 201 198 194 202 205 204 206 207 208 208 212 206 200 201 194 189 185 182 184 177 174 167 165 167 162 158 156 154 149 143 138 135 130 124 122 120 119 116 111 105 102 102 101 101 99
191 223 262 46 75 117 78 54 66 53 19 153 140 150 197 173 139 185 222 241 229 232 236 226 225 231 199 170 164 167 170 177 185 195 200 201 202 202 201 196 196 199 196 191 194 198 196 197 198 197 201 199 197 199 201 211 213 209 207 206 210 213 213 206 204 206 197 194 192 191 189 178 179 177 174 172 165 162 162 162 157 151 144 139 136 129 127 126 122 117 111 106 108 111 108 106 105
195 182 12 35 345 99 87 73 50 38 25 102 137 157 186 142 189 222 229 238 236 263 259 235 229 275 152 156 164 171 178 183 188 198 205 206 204 205 206 201 196 194 193 191 191 193 193 195 195 194 197 197 198 201 204 212 214 211 209 210 212 215 215 206 205 208 202 199 197 197 190 179 183 181 176 176 173 171 170 169 164 159 153 146 142 137 133 131 128 123 120 116 118 122 122 121 118
238 155 94 50 9 56 96 86 43 2 8 128 146 102 111 175 227 224 231 240 244 48 42 30 52 56 95 152 165 175 185 190 192 199 204 207 206 205 205 201 197 192 192 193 191 190 193 194 196 198 199 198 200 201 204 210 214 214 212 214 216 216 216 209 205 207 205 204 201 200 194 187 188 184 182 183 182 181 179 176 171 167 160 153 151 145 140 139 138 135 131 128 124 123 127 128 124
262 154 121 81 41 73 81 73 76 12 346 16 12 348 245 230 237 228 237 243 247 224 90 72 65 82 124 171 176 186 194 195 199 203 203 207 208 206 205 203 200 195 194 196 195 193 194 195 198 202 203 205 207 205 206 211 216 221 218 217 220 221 219 213 210 209 206 207 204 202 200 194 191 189 190 188 187 190 187 183 178 174 166 158 158 154 150 152 150 145 140 137 128 123 128 130 125
251 140 123 121 82 94 86 90 118 109 319 356 331 258 248 244 306 292 253 249 248 233 156 145 155 156 190 200 198 198 201 203 204 204 203 208 211 208 207 206 203 201 200 199 198 198 197 196 199 202 203 208 212 212 215 216 217 223 226 223 223 225 223 218 217 213 209 208 203 203 204 199 196 193 191 190 191 196 193 189 186 182 173 165 169 168 164 164 157 150 146 141 133 129 131 131 126
146 126 129 136 116 107 110 122 123 125 188 127 230 239 233 123 352 272 253 251 240 204 189 197 208 223 223 215 215 210 207 209 206 203 202 202 204 206 206 205 204 204 201 197 196 199 199 197 200 203 204 208 212 215 220 221 221 223 227 228 224 223 225 224 222 218 213 209 204 206 207 204 202 196 193 193 195 197 194 194 194 189 180 175 178 178 172 167 160 155 153 145 138 135 135 135 132
107 127 127 126 127 125 141 144 133 158 168 178 240 250 233 144 217 254 247 241 186 183 220 219 220 235 234 226 221 218 217 215 208 202 198 195 198 203 203 203 206 207 202 198 199 201 200 198 201 204 206 209 211 213 218 220 222 225 225 228 226 222 222 220 220 220 216 210 205 206 205 204 204 199 197 195 193 194 192 195 198 193 187 183 183 181 175 168 162 161 156 148 142 140 138 138 137
128 140 135 130 139 140 164 166 146 189 165 177 258 277 262 194 212 247 232 108 155 202 224 216 223 236 234 233 226 219 222 221 212 203 199 197 199 202 203 205 206 206 203 202 202 201 201 203 206 209 211 216 222 221 221 220 221 225 224 226 229 225 222 216 215 219 217 209 202 202 201 200 203 205 203 198 197 198 194 195 197 196 192 189 186 181 175 169 166 164 158 151 146 140 137 138 137
146 175 175 151 178 181 178 166 138 216 174 127 282 277 256 225 228 245 216 141 170 208 232 225 226 233 229 232 226 220 222 218 211 208 208 207 205 204 206 208 204 201 202 201 200 198 201 204 207 213 216 221 229 228 224 223 220 220 221 222 226 226 221 213 210 213 212 206 201 203 204 204 206 207 205 201 204 206 204 198 195 196 196 192 188 182 174 170 169 165 160 155 149 141 137 137 136
159 198 243 163 202 200 174 158 138 209 152 119 242 266 255 228 229 236 179 157 199 227 245 243 237 234 228 225 222 225 222 215 215 215 213 211 209 207 207 207 201 198 198 196 198 198 199 203 205 209 214 219 228 229 224 222 218 215 217 218 221 224 219 211 203 204 207 207 206 208 211 214 210 206 206 204 201 205 207 203 197 197 197 193 189 185 178 174 170 165 162 158 149 143 138 138 138
171 176 247 206 224 168 149 157 167 194 156 144 213 255 269 266 229 182 128 174 219 245 251 249 247 238 228 222 221 228 225 220 222 222 215 210 210 208 206 203 198 195 194 194 197 199 199 206 211 211 215 218 222 228 226 220 215 211 214 217 220 225 223 218 210 202 207 213 215 215 213 211 208 203 204 205 202 206 208 206 202 200 197 193 190 187 181 176 172 167 164 160 150 143 139 140 141
181 188 208 202 229 144 136 155 182 198 152 170 203 249 260 265 199 102 102 197 214 246 255 255 255 248 240 231 226 233 232 225 225 225 218 210 209 207 204 201 196 194 194 194 194 198 198 208 217 215 217 217 216 227 225 212 207 205 207 213 218 222 224 223 218 209 212 219 219 221 218 214 213 206 204 210 214 216 215 210 205 201 195 192 188 185 181 177 172 167 165 163 155 146 142 142 141
191 230 220 175 210 191 147 150 179 187 136 185 212 252 266 247 116 112 152 206 220 243 255 257 257 253 248 242 235 237 237 228 224 224 216 207 208 208 206 202 199 197 197 195 194 198 197 204 217 217 214 215 216 221 211 200 199 199 203 207 210 215 217 221 220 215 218 224 219 218 219 218 218 213 213 219 222 220 215 209 205 199 194 191 187 183 180 177 176 171 163 161 158 150 147 145 143
191 218 236 195 214 229 187 146 142 171 204 217 219 239 259 262 272 242 187 190 212 236 251 256 259 258 256 252 243 240 239 232 225 222 211 204 207 210 209 204 201 200 201 201 198 200 199 201 215 218 209 207 214 213 201 196 196 197 204 205 203 207 207 211 217 216 220 226 221 215 216 213 212 213 215 217 219 219 212 206 202 195 190 189 186 184 181 177 177 175 164 159 159 155 151 149 146
205 194 223 223 215 235 247 158 139 176 211 238 237 242 254 258 265 265 247 226 224 239 251 254 256 258 260 259 253 248 243 236 231 225 207 198 203 207 205 201 200 202 203 203 200 200 200 199 208 215 207 199 208 212 201 195 195 195 200 205 206 209 208 209 213 213 217 224 221 217 214 209 209 213 213 213 216 214 207 201 195 188 186 185 183 180 178 175 175 173 167 161 156 154 155 154 150
343 167 250 252 235 233 216 105 110 194 234 244 246 254 262 260 260 263 263 256 251 255 256 255 253 251 254 253 253 251 246 244 234 215 196 193 202 204 199 196 199 203 203 200 199 198 198 197 197 204 203 194 196 201 195 193 194 195 196 203 208 210 211 213 214 215 216 218 215 212 210 211 214 213 210 210 211 207 202 197 191 185 182 182 182 178 175 176 177 174 168 162 156 152 155 158 154
354 326 281 261 269 268 132 106 102 131 265 258 253 263 270 269 267 267 269 269 266 263 258 255 249 243 241 241 246 245 245 246 212 187 190 194 200 199 195 195 196 199 200 197 198 199 197 196 193 196 198 191 188 192 193 196 197 196 197 202 205 206 208 209 212 215 215 213 210 210 213 216 217 211 206 205 203 199 196 193 188 185 183 183 184 184 182 180 178 173 167 164 164 160 156 159 156
285 266 272 251 252 259 105 100 120 138 261 270 273 277 275 274 273 270 269 268 266 263 258 255 250 245 238 236 242 244 246 239 180 175 186 185 188 190 190 193 194 196 199 198 198 198 196 195 195 196 199 195 192 195 197 199 199 197 198 198 198 204 209 209 211 213 214 215 215 216 217 217 213 207 205 203 198 194 192 189 186 186 186 185 184 186 186 180 174 172 169 165 167 167 163 161 157
244 242 261 259 255 250 104 95 123 171 237 279 289 287 280 280 278 269 260 257 260 259 257 259 259 256 246 238 240 243 246 237 210 199 187 179 181 184 187 192 197 201 201 199 198 197 194 195 196 196 202 202 197 198 199 199 198 198 200 197 194 201 207 209 211 213 215 216 215 213 212 210 207 204 203 200 195 192 190 188 188 188 188 186 184 184 184 179 175 176 176 172 167 165 164 165 164
231 234 249 246 208 274 233 104 137 203 231 284 296 289 277 278 275 266 254 244 250 259 261 263 262 259 253 248 249 248 247 242 232 224 195 178 177 180 188 194 196 200 201 199 197 196 195 197 196 193 200 205 201 199 201 198 197 199 199 199 199 202 205 207 211 215 216 214 210 206 205 205 204 203 200 197 195 192 190 190 190 190 190 190 190 187 185 183 181 179 178 178 173 165 163 170 172
224 222 239 252 275 288 277 11 329 244 225 262 291 285 268 261 259 264 256 225 236 250 253 256 249 244 249 252 252 249 248 246 243 238 210 176 176 184 191 192 192 195 199 198 196 196 196 197 197 192 197 204 200 197 198 198 199 199 196 197 201 203 204 205 207 210 209 207 205 202 202 205 204 201 198 198 197 194 194 195 193 192 192 193 192 190 189 187 186 184 183 184 181 174 169 172 179
229 211 226 251 278 309 318 344 334 283 238 195 294 295 275 246 256 267 268 237 246 240 231 245 245 232 232 241 242 239 243 244 241 243 227 183 178 187 190 189 191 195 199 199 196 197 198 196 195 193 195 201 198 194 197 199 200 198 195 195 196 197 198 201 204 205 204 203 205 205 204 205 202 199 199 200 199 196 198 198 195 195 195 194 193 192 190 187 187 187 189 189 187 182 174 173 182
244 223 248 254 273 302 306 318 309 289 303 186 194 286 283 275 269 269 271 269 270 266 251 253 256 240 227 230 232 231 236 238 233 234 229 206 186 183 188 191 192 196 198 196 196 198 199 195 194 193 192 196 196 197 202 203 200 200 201 199 198 198 199 203 206 207 206 206 209 210 206 201 199 199 201 200 197 196 200 200 198 198 197 194 193 191 188 189 191 192 193 193 189 185 180 176 182
241 16 4 303 246 266 276 302 271 286 320 269 193 236 275 275 257 253 259 263 265 266 261 258 257 249 241 240 239 237 239 240 231 223 224 219 200 189 192 192 193 197 194 191 194 196 198 195 193 193 192 196 198 201 207 206 203 203 205 204 206 207 207 208 209 207 209 211 212 210 204 199 198 200 200 198 196 197 200 200 200 199 197 194 192 191 192 196 197 196 195 194 190 188 187 183 183
46 65 40 74 89 52 197 270 272 295 317 282 190 182 264 279 240 216 234 244 249 253 256 259 257 243 234 243 244 231 215 221 232 228 228 223 212 203 198 192 190 193 190 190 192 193 195 194 192 191 194 198 200 205 209 207 204 206 206 206 209 211 210 211 210 209 210 211 209 206 202 200 199 199 198 196 197 200 201 200 199 200 198 195 194 195 199 201 199 198 195 192 191 191 190 187 187
128 129 93 85 99 85 113 258 288 296 285 272 188 169 253 290 263 183 197 227 237 248 252 256 253 182 170 191 162 141 139 158 211 219 207 201 208 204 195 188 185 187 188 190 189 190 192 192 191 192 195 195 198 210 212 207 206 208 207 208 208 207 204 205 207 208 209 208 206 203 200 201 200 199 198 197 198 201 203 203 202 200 199 199 199 198 201 201 198 199 196 191 191 191 189 189 191
143 146 118 109 125 107 175 248 298 267 266 263 171 171 198 293 281 176 171 201 208 227 243 235 178 135 154 148 128 135 141 147 159 165 154 140 144 168 179 182 184 184 185 187 189 191 192 192 193 195 197 195 198 211 214 211 209 209 209 210 210 207 203 202 203 205 204 201 201 201 200 200 200 199 199 198 200 204 207 208 207 203 202 203 204 202 203 202 200 199 195 191 191 188 187 189 188
156 159 155 160 172 172 207 207 171 236 253 288 113 173 186 252 267 149 140 184 203 226 244 233 192 132 146 136 138 143 141 153 158 157 160 155 153 164 178 184 184 184 185 188 191 191 192 195 195 195 198 198 200 210 213 212 211 210 211 211 210 210 207 205 204 203 202 200 199 200 200 200 200 200 201 201 205 208 210 211 209 206 206 207 206 204 205 204 202 201 197 194 194 191 192 193 191
198 184 176 200 216 204 221 209 195 231 233 109 82 203 210 243 256 251 232 234 232 240 244 257 281 289 288 272 161 154 154 167 168 164 169 172 175 177 182 187 186 188 190 190 191 191 193 197 197 196 197 198 201 210 213 212 212 212 212 210 209 210 210 209 207 204 205 204 202 200 199 200 200 201 202 205 210 212 211 212 212 210 209 209 207 205 206 205 203 201 198 197 198 198 198 198 198
196 190 182 201 210 220 233 217 217 238 217 104 117 165 243 256 265 266 258 252 239 232 238 264 289 284 283 287 253 214 188 177 168 173 187 190 189 184 185 187 187 191 194 192 192 193 194 197 198 198 198 200 206 214 213 212 213 214 214 213 211 210 209 211 209 207 208 207 206 206 204 203 203 203 204 206 212 213 211 212 213 213 211 210 208 207 207 206 203 201 200 199 200 202 204 203 205
199 203 197 209 215 231 241 232 241 246 212 130 157 176 235 248 300 321 278 293 276 255 262 277 282 274 277 288 283 271 238 186 168 195 217 210 193 184 185 188 188 191 192 191 193 194 194 196 197 198 201 204 212 218 214 211 212 215 216 214 212 211 210 211 212 214 216 216 213 211 210 209 208 207 207 209 213 213 211 211 213 213 213 212 211 209 208 205 203 202 201 201 202 205 207 208 210
200 201 212 228 234 238 252 272 254 295 327 217 196 231 251 263 298 288 267 280 271 250 241 240 249 252 255 267 264 261 243 180 179 217 227 215 194 186 188 188 187 189 190 190 193 194 194 195 194 198 203 207 214 218 214 212 213 215 216 214 212 212 214 215 218 221 223 222 218 212 211 213 212 210 210 212 214 212 211 211 212 213 214 213 212 209 207 205 203 202 202 202 203 206 208 210 212
180 181 207 223 22 263 249 236 104 73 278 252 218 250 268 283 288 274 245 238 238 235 231 231 242 244 231 238 248 243 193 170 207 228 224 210 198 193 191 188 186 187 189 192 193 195 196 194 193 197 202 207 213 213 209 210 214 215 216 216 215 214 216 219 221 223 223 222 220 214 211 210 209 209 211 213 213 211 212 213 213 212 213 212 211 208 207 205 204 203 204 203 204 206 208 206 204
160 188 193 117 44 312 246 248 217 215 251 255 235 250 266 271 275 278 197 217 229 234 237 240 249 252 241 240 248 235 158 175 214 232 229 210 196 193 192 191 191 189 189 191 193 195 196 196 195 197 201 206 209 205 204 210 215 216 216 217 217 216 217 221 222 224 223 222 220 216 211 207 206 210 213 213 211 210 211 213 213 212 212 211 209 207 206 205 203 203 203 204 204 204 202 195 190
44 287 185 136 231 221 205 226 236 236 245 256 252 256 261 249 251 267 232 221 229 233 230 225 230 240 243 249 258 240 147 167 201 224 232 210 184 187 189 191 196 194 191 191 192 193 196 198 200 201 203 207 205 202 207 213 216 218 219 219 217 216 218 221 222 224 225 223 222 218 214 210 209 212 214 212 211 210 210 211 212 211 210 209 207 206 204 202 202 202 202 201 200 197 192 185 181
356 304 243 206 248 235 214 211 217 239 246 253 261 262 256 245 248 262 262 257 255 252 247 235 226 232 242 253 264 244 134 175 203 215 224 203 178 178 181 188 193 194 193 190 190 192 196 198 200 202 205 207 206 205 211 215 216 218 221 220 218 217 218 221 223 225 226 225 224 222 218 215 212 214 214 212 212 211 209 209 210 210 208 206 204 203 201 200 199 200 200 196 191 188 185 181 178
186 219 214 202 200 239 282 245 222 240 247 251 261 265 263 260 253 261 269 271 262 258 258 243 228 238 249 250 254 2 18 241 216 188 190 186 179 174 176 183 186 191 195 192 190 192 195 198 200 202 203 207 209 206 209 214 215 217 220 220 219 218 219 221 222 224 226 226 224 223 221 217 215 215 214 213 213 210 208 208 207 207 206 204 202 199 197 197 196 195 193 190 186 183 182 180 179
191 204 205 206 198 181 231 234 212 219 243 253 262 270 271 269 247 262 269 273 274 272 256 240 233 247 255 247 124 89 304 285 258 142 159 174 177 173 174 178 182 192 200 197 192 191 194 198 201 202 203 207 208 204 203 208 214 218 220 220 221 220 219 220 221 222 224 224 224 224 222 217 215 216 215 213 213 209 207 207 205 204 203 202 200 198 196 194 193 191 188 186 184 182 181 182 182